Theta_e
290 290 291 292 292 293 294 296 298 297 295 295 296 297 299 300 301 302 304 306 307 309 311 314 312 310 313 315 315 322 327 327 328 329 330 329 329 328 325 324 323 323 322 322 321 320 321 320 317 313 313 312 310 309 308 307 307 306 304 303 301 298 296 296 295 294 292 290 290 289 289 291 291 290 289 289 288 288 288 287 287 287 287 287 287
288 289 290 289 290 291 294 297 298 297 298 295 296 296 296 298 300 301 303 305 307 308 310 311 313 313 311 312 314 314 324 325 326 328 328 328 328 327 325 324 323 323 322 321 320 320 320 319 316 313 312 312 311 310 308 307 306 304 303 301 301 298 295 295 295 296 293 291 288 287 287 289 290 289 288 288 288 288 287 286 286 286 286 286 286
287 287 287 288 289 290 294 297 297 298 297 295 294 294 295 297 298 301 302 303 305 307 308 309 310 312 310 309 312 312 316 327 327 327 327 327 327 327 325 324 323 322 322 320 320 320 319 318 315 313 313 312 310 309 308 306 306 304 303 301 298 298 296 296 296 300 294 293 292 289 287 287 287 287 288 287 287 287 287 286 286 285 284 285 285
287 287 287 287 286 290 294 296 297 295 294 292 293 294 293 296 297 298 299 303 304 305 306 306 307 311 311 312 311 312 311 313 326 325 325 325 324 325 325 324 323 322 321 320 319 320 319 317 315 313 313 312 311 308 307 306 305 304 303 301 299 295 295 295 298 299 295 293 291 293 289 290 287 285 284 286 287 287 287 286 286 284 284 284 284
287 287 287 287 287 289 294 296 296 295 295 295 292 292 294 295 297 297 297 302 304 304 306 306 308 308 312 310 311 311 312 313 315 319 321 322 322 322 322 322 322 320 321 319 319 319 318 316 315 313 312 312 311 309 307 307 306 305 304 301 300 297 294 295 297 299 296 302 296 291 289 290 292 285 284 284 286 285 286 286 286 284 284 284 282
286 287 287 286 286 288 292 294 295 293 294 295 291 293 292 293 294 296 298 301 303 304 305 306 307 308 309 311 308 308 308 308 309 308 314 319 320 320 318 320 318 317 317 318 318 317 316 316 314 312 311 311 311 310 309 307 306 305 304 303 301 300 297 296 296 299 297 300 301 299 298 296 286 283 287 283 284 286 286 286 285 284 284 283 283
285 285 285 285 286 286 290 292 294 294 296 294 291 291 291 293 295 296 299 300 302 302 304 306 306 308 308 307 308 308 309 309 309 309 307 309 312 315 316 317 317 314 313 314 316 316 316 315 313 312 311 311 310 310 308 307 306 306 305 303 302 300 299 297 297 296 296 298 300 296 295 294 289 287 287 281 280 283 284 283 283 284 284 283 283
286 286 286 284 284 285 290 294 294 296 295 293 292 292 293 295 296 297 298 300 300 301 303 304 305 306 307 308 306 307 309 309 309 310 310 308 310 310 311 311 312 313 313 313 314 314 314 312 312 311 310 310 309 309 308 308 307 306 305 305 303 301 300 300 299 297 295 297 298 293 293 292 291 294 293 292 287 281 280 282 284 283 283 283 283
285 286 286 286 285 285 287 290 294 295 294 295 294 293 292 293 296 296 297 299 301 301 302 303 304 305 305 304 304 303 304 309 312 310 310 311 309 307 308 309 309 310 311 312 312 312 311 311 311 310 309 309 308 309 308 308 307 306 305 304 303 302 301 302 301 298 298 299 297 291 292 291 292 292 292 288 285 283 279 279 279 281 283 283 282
285 285 286 286 285 285 285 287 288 292 294 294 293 291 291 292 295 296 297 299 301 301 301 302 303 304 304 304 304 302 303 302 306 309 311 311 310 310 309 308 308 308 308 310 311 311 311 310 310 310 310 309 308 309 308 307 306 306 306 305 304 302 302 303 302 300 300 301 299 293 291 291 291 290 289 287 287 286 282 279 279 278 278 280 282
285 285 285 285 285 285 284 286 287 288 290 292 292 291 290 293 294 296 297 298 300 300 300 300 301 302 304 304 305 304 303 304 301 303 303 308 310 309 309 310 309 309 309 310 310 310 310 310 310 309 309 307 307 308 307 307 307 307 306 306 305 303 303 303 302 301 301 302 299 295 294 293 292 291 289 289 287 282 281 280 279 280 280 278 280
284 284 285 284 285 285 286 287 286 288 290 291 290 291 291 292 293 295 295 298 299 300 300 300 300 301 303 304 305 304 304 305 305 303 304 306 307 308 306 308 310 311 310 310 311 312 311 311 310 310 308 308 307 308 307 307 307 307 307 306 305 304 304 303 302 301 300 302 300 297 296 296 296 295 292 293 290 287 286 280 280 280 280 280 281
283 283 284 284 285 285 285 286 286 287 290 291 292 292 291 291 292 294 295 296 298 300 301 301 301 301 301 302 303 304 304 306 306 305 304 305 305 305 303 304 303 304 307 308 310 311 311 310 310 310 309 308 308 308 307 307 307 306 306 306 306 304 304 304 303 302 301 302 301 298 298 296 297 296 294 293 291 288 285 280 280 281 278 279 280
283 284 284 284 286 286 285 285 285 285 287 290 290 291 292 292 291 293 294 295 297 298 300 300 302 302 300 301 302 302 303 305 306 306 306 306 305 305 304 305 305 306 305 306 308 309 309 310 310 310 310 309 308 308 307 307 307 306 306 306 305 305 305 304 304 303 302 303 303 299 297 296 296 294 294 292 289 286 284 281 280 280 280 278 279
283 283 285 286 287 286 287 286 285 285 286 289 290 292 291 292 292 292 292 293 296 297 299 300 301 302 302 301 301 300 302 303 304 306 306 306 305 304 304 303 304 305 306 307 307 307 308 308 308 309 309 309 308 308 307 307 307 306 306 306 306 306 305 305 305 304 302 303 302 300 298 297 295 293 294 292 290 289 286 283 281 278 278 279 278
284 284 286 286 287 286 286 286 286 286 286 286 290 292 292 293 293 293 293 293 294 296 297 299 300 302 303 303 302 301 301 301 302 302 303 306 306 305 304 304 304 301 301 301 303 306 307 307 308 308 309 309 308 308 307 306 306 306 305 305 305 306 305 304 305 304 303 303 302 300 298 297 294 293 294 292 291 289 287 285 284 282 279 276 278
285 286 286 287 287 286 286 287 287 286 286 287 289 292 293 293 292 292 292 290 292 295 296 296 297 299 301 303 303 302 301 301 302 301 302 303 304 305 305 304 304 303 302 300 301 302 304 305 306 307 308 308 307 307 307 306 306 306 305 305 305 305 305 304 305 304 303 303 302 299 298 297 294 293 293 292 290 289 288 287 287 286 286 281 277
286 286 287 287 286 287 287 287 287 288 288 288 288 290 292 293 293 292 292 292 292 293 294 294 295 297 299 301 303 304 304 303 301 300 300 301 302 303 303 302 302 302 302 301 301 301 301 301 304 305 306 306 306 306 306 306 305 305 305 305 305 305 304 304 304 304 303 302 301 299 297 294 293 292 292 291 290 289 287 287 288 289 289 285 281
285 286 287 287 287 288 288 288 289 288 288 288 289 288 289 290 292 293 293 293 294 293 293 293 294 295 297 299 301 303 304 304 303 302 300 300 301 302 302 303 302 301 300 300 300 300 301 301 302 304 305 305 305 305 305 305 305 305 305 304 304 304 303 303 303 303 302 300 299 297 295 294 292 292 291 290 289 289 288 288 288 289 290 288 284
286 286 287 287 288 288 289 289 289 289 289 289 289 287 288 290 291 291 291 290 290 291 292 293 293 294 294 295 296 300 303 304 304 303 302 301 302 302 302 302 302 301 300 300 300 300 301 301 301 302 303 304 305 305 304 304 304 304 303 303 302 302 302 301 300 300 298 298 297 295 293 293 292 292 291 290 289 288 288 288 289 290 290 289 289
287 287 287 287 288 288 288 289 289 288 287 286 287 288 289 288 289 291 291 291 291 292 292 293 293 293 293 293 295 297 299 302 303 303 303 302 302 302 302 303 302 301 301 300 300 300 300 301 301 300 301 302 303 303 303 303 303 303 302 302 300 301 301 300 298 297 296 296 295 294 292 292 292 291 290 290 290 290 290 290 290 290 289 289 289
287 287 287 287 287 287 287 287 286 285 287 287 288 287 287 288 289 290 290 291 291 291 292 293 293 294 293 294 294 295 297 299 301 302 303 303 302 302 302 301 301 301 300 300 300 300 300 300 300 300 300 301 302 303 302 302 302 302 301 301 300 300 300 298 297 296 295 295 295 293 291 291 292 291 290 290 290 290 290 290 290 289 288 287 288
287 286 286 286 286 287 286 285 285 286 287 287 286 287 288 288 288 288 290 290 291 291 292 292 292 293 293 294 294 294 295 296 297 299 301 302 302 302 301 300 300 300 299 299 299 299 299 299 299 299 299 299 300 301 301 301 301 301 300 299 299 299 299 297 295 295 294 294 293 292 291 290 290 290 289 290 290 290 290 289 288 288 287 286 286
284 283 283 284 284 283 282 283 285 284 284 285 286 286 286 287 288 287 288 290 290 290 291 291 291 292 292 293 293 293 293 294 295 297 298 300 301 301 300 300 300 299 298 298 298 299 299 299 298 298 298 298 298 299 299 300 300 300 300 299 298 299 299 297 295 294 293 293 293 292 291 290 290 289 289 289 289 289 289 288 288 287 287 286 285
282 283 284 283 282 283 286 286 285 285 284 284 285 285 284 285 285 287 288 289 289 288 289 289 290 290 290 291 291 292 293 293 294 295 296 297 298 299 299 299 299 298 298 297 297 297 298 298 298 298 297 297 297 297 297 298 299 299 299 298 297 298 297 296 295 294 293 293 293 292 290 289 290 289 288 288 288 288 288 288 287 287 286 285 284
283 282 282 284 285 285 283 283 284 284 285 285 285 284 284 284 285 285 286 285 286 286 288 288 288 288 289 289 290 290 291 292 293 294 295 295 296 298 298 297 298 298 297 296 296 295 295 296 296 297 297 297 297 296 296 296 296 296 297 297 296 297 296 296 295 294 293 293 293 292 290 290 290 289 288 288 288 288 288 287 287 286 286 285 284
283 283 284 283 282 284 285 285 285 284 284 284 284 285 284 284 285 283 283 284 283 284 284 286 286 287 287 287 288 289 290 290 291 292 292 292 293 295 295 295 295 295 294 293 292 293 293 294 294 294 295 295 296 295 295 295 295 295 295 295 295 295 295 294 294 294 293 293 293 292 290 290 290 290 289 288 288 288 288 287 287 286 285 284 283
281 281 282 283 285 284 284 284 284 284 284 284 283 284 284 284 285 283 281 282 283 283 284 284 284 285 286 286 286 287 287 288 289 290 290 291 291 292 294 294 293 293 293 292 292 292 292 291 292 292 292 292 293 294 294 294 294 294 294 294 294 294 294 293 293 292 292 292 292 292 290 290 291 291 290 289 288 287 287 286 286 285 284 284 282
281 282 282 283 283 284 284 284 284 283 282 283 283 283 283 283 283 282 281 283 281 283 283 283 283 284 285 285 285 285 286 287 287 288 289 289 290 290 291 292 291 292 292 292 292 292 291 291 291 290 291 290 291 292 292 293 293 293 293 293 293 293 293 292 291 291 291 291 291 291 290 290 290 290 289 289 288 288 287 286 285 285 284 283 282
282 283 284 284 284 284 284 284 283 282 282 282 282 283 283 284 284 282 282 282 282 282 283 283 283 283 283 284 285 285 286 286 286 287 288 288 289 290 291 291 291 291 291 290 291 291 291 291 290 290 290 290 291 292 291 292 292 292 292 292 292 292 292 291 291 290 289 290 290 289 289 288 288 288 288 288 289 289 289 288 286 285 284 283 281
283 283 284 285 285 284 283 282 282 282 282 283 283 283 283 282 283 282 283 282 281 283 282 282 283 283 283 283 284 284 285 286 286 286 287 287 289 290 290 290 290 290 290 289 290 290 290 290 290 290 289 290 291 291 291 293 293 293 292 291 291 291 291 291 290 290 289 288 288 288 288 287 287 287 287 288 288 288 289 289 288 287 286 284 281
284 284 285 285 285 284 283 283 283 283 282 283 283 283 282 283 283 283 283 281 282 283 283 283 282 282 282 283 283 284 284 285 285 286 287 287 287 289 290 290 289 289 289 289 289 289 290 289 289 289 289 290 290 290 292 292 293 293 292 290 290 290 290 290 290 289 289 288 288 287 287 287 287 287 287 287 287 288 288 288 288 287 287 286 286
285 285 286 285 285 285 284 284 283 283 283 283 284 283 283 284 283 283 281 282 283 283 282 282 282 282 282 282 283 284 285 285 285 286 286 287 288 289 289 289 289 289 288 288 288 289 289 289 289 289 288 289 289 290 291 292 292 293 293 290 289 289 289 289 289 288 288 288 287 286 286 286 287 286 286 287 287 286 287 287 287 287 287 287 287
286 286 286 286 286 285 284 284 284 284 284 284 283 284 284 283 283 281 282 283 283 282 282 282 282 282 282 282 283 284 284 285 285 285 286 287 288 289 289 289 289 288 288 288 288 288 288 288 288 288 288 288 288 289 291 292 292 292 292 291 289 289 288 288 287 288 287 287 286 286 285 285 285 285 286 286 286 285 285 285 285 285 284 285 286
286 286 285 286 286 285 284 283 283 283 282 282 282 282 281 281 282 282 282 283 282 283 282 282 282 282 281 282 282 283 284 284 284 285 286 287 288 289 289 289 288 288 288 287 287 287 288 288 288 288 288 287 288 289 291 291 292 292 292 291 288 288 287 287 287 287 287 286 286 286 285 285 285 285 285 285 285 285 284 283 283 283 282 283 283
287 286 287 286 285 284 284 284 284 283 282 283 283 282 282 282 282 283 282 282 283 283 283 282 282 282 282 282 283 283 283 283 284 285 287 288 288 288 288 287 287 287 287 288 287 288 287 287 288 287 287 287 287 289 290 291 291 292 292 289 287 287 286 286 286 286 286 286 285 285 285 284 284 284 285 286 285 284 283 282 281 281 281 281 282
287 287 288 288 286 285 285 284 283 284 284 283 283 282 283 282 282 282 282 282 282 282 283 283 283 283 283 283 284 285 285 285 285 287 287 287 287 287 287 287 287 286 286 287 287 287 288 287 287 287 287 286 286 288 290 290 291 292 290 287 286 286 286 285 285 285 285 285 285 285 285 284 284 283 285 286 286 284 282 282 281 280 280 280 280
287 287 287 286 285 284 283 284 284 284 285 284 282 283 283 282 282 282 282 282 282 283 283 283 284 285 284 283 284 285 285 286 286 286 287 287 287 287 287 287 287 286 286 286 286 286 287 287 287 286 287 286 286 287 289 290 290 291 289 286 286 285 285 285 284 284 284 284 284 284 284 284 283 283 285 286 286 284 282 281 280 279 279 278 278
287 286 285 284 284 284 283 283 284 284 284 283 282 282 283 282 282 282 282 282 282 283 283 283 284 284 284 284 285 285 284 284 284 285 286 286 287 287 286 286 286 286 286 286 286 286 286 286 286 286 286 286 286 286 289 290 290 290 288 286 286 285 284 284 284 283 283 283 283 283 283 284 283 284 286 287 286 283 281 281 280 279 278 278 278
286 285 286 286 283 282 282 283 284 285 283 282 282 283 282 282 282 281 281 282 282 283 283 283 284 284 284 284 284 285 287 287 287 287 287 287 287 286 285 285 285 285 285 285 286 286 286 285 286 286 286 286 285 286 287 289 289 289 288 286 285 285 284 283 283 283 282 282 282 282 283 285 285 285 286 287 286 285 281 281 280 279 278 277 278
284 284 284 283 283 285 285 285 286 284 282 282 283 283 282 282 281 281 282 283 283 283 283 283 283 284 284 285 284 285 285 286 287 287 287 286 286 286 285 285 285 285 285 285 285 285 286 285 285 285 285 286 286 285 286 289 289 289 289 287 285 285 285 284 283 282 282 281 281 282 282 284 285 285 286 287 286 285 283 280 280 279 279 280 280
282 282 283 284 284 284 283 282 282 283 282 283 283 283 283 282 281 281 283 283 283 283 283 283 283 284 285 285 286 285 285 286 286 286 286 285 285 285 285 285 285 284 284 284 285 285 285 285 284 285 285 285 285 285 286 287 288 289 289 288 285 285 285 284 283 282 282 281 281 281 281 283 285 285 286 287 286 285 284 280 280 283 284 283 279
281 280 281 283 283 283 283 284 282 282 282 282 283 283 282 282 282 283 283 283 283 283 283 283 283 283 284 285 285 286 286 286 286 286 286 285 285 285 285 285 284 284 284 284 284 284 284 284 283 284 284 285 285 285 285 286 287 288 289 288 287 286 287 284 283 282 281 281 282 282 282 283 285 285 286 287 286 285 283 280 283 285 284 283 280
283 284 283 282 284 283 283 282 281 281 282 282 283 283 282 282 282 284 281 282 282 282 282 282 282 283 283 284 285 285 285 286 285 285 285 285 284 284 284 284 284 284 283 283 283 283 283 283 282 282 283 284 284 284 285 285 286 288 289 288 288 287 287 284 284 283 282 282 281 281 281 283 284 285 286 286 286 284 281 283 284 285 284 281 277
281 282 282 282 283 283 283 282 281 281 282 282 283 283 282 282 284 282 282 281 282 282 282 282 282 282 282 284 285 285 285 285 285 285 285 285 284 284 283 284 283 283 283 282 282 283 282 283 282 282 282 283 284 284 284 285 286 286 288 288 287 287 286 286 284 283 283 282 282 282 282 283 284 285 286 286 285 284 283 284 284 284 280 277 276
279 278 281 282 281 281 281 281 280 280 281 282 282 283 283 284 284 282 282 282 281 281 281 282 281 282 282 283 284 284 285 285 285 285 285 285 284 284 283 283 283 283 283 282 282 282 282 282 282 282 282 282 283 283 283 284 285 286 286 287 287 286 285 285 284 283 282 283 283 282 283 283 284 284 284 284 283 282 283 283 283 282 278 277 276
279 278 279 279 279 280 281 281 281 280 281 282 282 283 284 284 282 282 281 281 281 281 281 281 281 281 281 282 283 284 284 285 285 285 285 285 285 284 284 283 282 282 282 282 282 282 282 282 282 282 282 282 282 282 283 283 285 285 286 286 286 285 285 284 283 282 282 282 282 281 282 283 283 283 284 284 283 283 282 281 281 280 278 276 275
278 277 278 278 279 281 281 281 281 281 281 282 282 283 284 283 281 281 281 281 281 281 280 280 280 281 281 281 282 283 284 284 284 285 284 284 285 285 284 283 283 283 282 282 282 282 281 282 282 282 282 281 281 282 282 283 284 285 285 286 286 285 284 283 282 282 281 281 281 281 281 282 282 282 282 283 282 282 281 280 280 279 277 276 275
279 277 277 280 280 280 280 280 281 281 281 281 282 283 283 283 282 281 281 281 281 280 281 280 280 280 281 282 282 283 283 284 284 284 285 285 284 284 284 284 285 285 284 283 282 282 283 283 283 282 281 281 281 281 283 284 284 285 285 285 285 285 284 283 283 283 281 280 280 279 279 279 280 279 280 280 281 281 280 280 279 279 277 275 274
279 278 278 279 280 280 280 281 282 281 281 281 282 282 282 282 282 281 281 281 281 280 280 280 279 280 280 281 281 282 283 283 284 284 284 284 285 285 285 284 284 284 284 285 285 283 284 284 283 284 284 282 282 283 285 285 285 286 286 286 286 286 285 284 284 283 281 279 278 278 278 278 278 278 278 279 279 279 280 279 278 278 277 275 274
280 278 277 278 280 280 280 280 281 280 281 281 281 281 281 282 282 282 282 282 281 280 280 280 279 279 280 281 281 282 283 283 284 284 283 283 283 284 286 286 285 285 284 285 286 286 286 285 285 283 284 285 285 285 285 285 285 286 286 286 286 286 286 285 285 282 279 278 277 277 277 278 278 278 278 278 279 279 279 279 278 277 277 276 275
Wind_Speed
11 8 8 9 10 8 6 5 5 3 3 4 4 5 5 3 3 3 3 4 2 3 6 3 6 4 2 3 6 11 11 14 14 14 14 14 15 16 16 15 16 16 16 16 14 14 13 13 14 13 14 14 15 16 16 15 13 13 13 14 17 15 10 11 11 14 15 11 8 9 9 8 8 8 8 6 6 5 4 4 3 5 5 5 4
7 9 9 7 7 7 5 5 5 4 6 5 6 5 5 2 3 3 2 2 2 4 4 2 6 6 1 3 1 6 9 9 12 13 15 14 16 15 15 14 16 16 16 16 16 16 14 14 14 15 14 13 13 13 14 14 15 13 13 11 11 16 12 13 13 13 7 13 11 6 7 7 7 7 7 6 5 5 4 4 4 4 5 4 4
8 8 8 8 7 5 4 5 5 6 2 5 4 4 5 2 3 3 2 2 2 3 3 2 1 8 6 1 2 2 8 9 10 11 12 13 14 14 14 13 15 15 16 15 15 15 16 15 14 14 15 14 13 13 15 16 15 17 17 16 12 10 11 10 14 8 11 8 10 12 6 5 2 4 4 5 4 4 4 4 4 4 5 4 5
12 10 8 7 4 4 4 5 5 3 4 3 3 4 3 2 3 3 2 2 3 2 2 2 2 5 8 6 3 3 2 10 13 11 12 13 14 14 13 13 14 14 16 16 14 15 16 16 15 14 15 15 15 16 16 17 16 15 15 16 17 14 12 12 11 6 12 16 8 2 7 6 7 5 4 3 3 3 4 3 3 3 3 4 5
11 10 8 7 7 4 5 6 1 4 5 6 4 4 3 4 4 3 2 3 4 1 1 1 3 1 11 3 4 6 2 6 5 9 10 11 11 11 12 12 12 12 16 16 16 16 15 15 15 15 15 15 14 15 15 16 17 17 19 18 20 19 16 13 11 8 14 11 14 9 4 4 4 8 8 2 2 2 3 3 3 2 2 3 4
9 10 9 7 6 5 4 4 3 4 5 4 3 3 4 4 3 3 1 3 4 1 2 1 2 1 0 8 3 6 5 3 7 6 3 10 12 8 7 9 9 9 8 14 14 14 15 15 14 13 11 11 13 15 14 14 14 14 16 17 17 14 18 16 13 8 13 8 2 2 6 8 11 11 10 6 2 2 2 2 2 1 2 4 3
6 5 7 6 8 4 4 4 5 4 7 1 2 3 4 4 4 3 4 4 4 2 2 1 1 1 1 2 2 9 8 1 2 7 7 5 4 7 8 7 9 9 8 6 9 12 15 14 14 14 13 12 11 12 13 15 15 16 14 13 14 13 13 16 16 13 9 6 2 2 4 5 14 16 6 8 3 1 1 2 1 2 2 4 4
7 9 7 5 6 5 5 5 4 7 4 3 4 4 4 5 4 4 3 3 3 1 1 2 3 2 1 1 3 2 11 9 4 7 10 6 4 4 5 6 5 8 10 10 11 10 10 11 13 13 14 13 12 10 13 13 12 11 13 13 12 12 15 16 16 14 17 11 6 4 6 9 15 6 14 14 11 12 7 1 0 2 3 3 4
6 7 8 6 6 5 5 4 5 4 4 5 6 5 4 4 3 3 3 2 2 2 1 1 3 2 2 3 3 4 3 8 12 8 5 11 6 4 3 6 6 6 8 10 10 11 10 11 13 13 12 11 11 11 10 11 13 15 14 13 14 13 13 12 14 14 13 13 10 4 6 8 8 3 6 4 6 7 3 7 5 0 1 2 3
6 7 8 7 6 5 5 4 3 4 4 5 3 3 4 3 3 3 3 2 2 2 2 2 2 3 3 3 5 2 6 4 4 12 14 9 9 13 6 4 6 6 4 6 10 10 10 11 11 12 13 12 11 14 16 15 14 14 15 14 14 15 11 11 13 14 14 11 11 9 8 8 6 4 4 4 5 3 10 13 10 12 10 5 4
6 6 6 6 6 6 4 4 5 1 2 3 3 3 3 4 4 4 4 2 2 2 2 3 1 2 3 5 5 6 4 8 2 4 4 9 14 13 12 13 11 10 10 6 9 9 8 8 8 8 8 8 9 10 12 13 14 14 14 14 14 15 12 12 11 11 12 11 11 10 12 15 13 11 11 7 6 5 6 5 6 6 5 7 4
6 5 6 5 5 4 2 4 5 2 4 4 4 3 3 4 4 4 3 3 2 2 2 3 2 2 1 3 6 6 8 6 8 6 6 9 8 10 9 10 14 18 18 17 17 20 20 19 19 17 15 13 12 11 11 12 12 11 12 13 12 13 12 11 10 12 13 10 12 10 10 11 9 10 12 12 11 8 11 11 10 7 5 2 3
5 5 5 5 5 5 5 5 3 1 3 4 5 4 4 4 5 6 5 4 3 2 4 3 3 3 3 3 3 5 7 8 9 9 7 6 8 9 8 7 5 6 10 12 16 21 17 18 19 20 19 19 19 16 14 14 13 13 13 14 14 15 14 14 13 14 16 13 13 11 8 8 8 6 9 10 4 7 11 13 6 6 4 5 3
5 5 5 5 6 6 5 5 4 3 2 4 5 5 5 4 4 6 6 5 4 3 4 4 5 4 3 4 4 4 5 7 7 9 9 8 6 9 9 10 11 12 10 10 10 11 11 13 16 17 18 19 21 22 22 20 18 15 15 15 15 15 14 16 14 13 14 13 11 12 11 11 8 6 9 9 11 11 10 14 13 4 4 5 3
4 5 6 7 8 6 6 5 5 4 4 4 5 6 5 5 5 6 5 5 6 7 5 6 6 5 4 3 4 3 5 6 6 7 8 9 8 9 8 6 7 9 11 11 11 11 11 11 10 10 12 13 14 15 17 19 20 17 16 17 14 13 14 14 12 13 13 15 13 12 12 11 8 8 10 10 10 12 14 15 16 13 5 3 4
4 5 6 8 8 6 5 5 5 4 4 4 5 6 7 8 7 7 6 7 7 7 7 7 6 5 5 5 6 5 5 4 4 4 5 8 9 10 10 9 7 3 1 3 5 9 11 11 11 12 11 13 14 15 16 15 17 17 16 16 17 13 15 16 14 14 15 16 15 13 11 11 9 9 10 10 10 10 12 13 14 16 16 8 4
5 6 7 8 6 5 6 6 5 5 4 6 8 8 9 8 8 7 6 5 8 9 8 7 6 5 7 7 5 5 5 7 8 7 7 7 7 7 8 9 7 7 6 4 6 7 7 7 10 11 11 12 13 14 15 16 16 16 16 17 18 16 16 18 15 14 14 14 13 14 12 11 9 9 8 8 9 9 11 13 13 15 13 13 9
7 6 6 6 5 6 6 5 6 7 7 6 7 6 7 8 9 9 7 8 8 9 10 9 9 9 8 8 8 8 7 7 6 7 7 7 6 5 5 5 7 7 8 7 7 7 6 6 8 9 10 10 12 13 14 15 15 15 17 18 18 17 16 14 15 15 14 13 12 12 10 8 9 9 9 10 10 11 11 11 10 7 9 14 9
6 8 8 7 7 8 8 8 8 7 6 6 6 4 5 6 7 9 11 12 11 8 7 7 8 8 8 9 10 8 7 6 5 5 4 6 8 8 8 8 7 6 6 6 7 7 8 7 7 8 9 11 11 12 12 13 15 15 15 14 15 17 17 17 15 14 13 12 13 13 10 9 9 10 9 9 8 10 10 10 8 7 5 9 12
8 8 8 8 8 9 9 9 9 9 8 8 6 3 6 7 8 8 6 5 5 6 7 7 8 7 7 6 6 7 8 7 6 6 7 8 8 8 9 9 10 8 9 9 8 8 9 10 9 10 10 11 12 12 12 12 12 13 13 12 12 15 15 16 14 12 11 12 13 13 11 10 9 8 9 9 10 9 9 9 8 7 5 7 9
9 8 8 8 9 8 9 8 8 6 4 4 4 6 7 4 6 7 9 9 8 9 7 8 6 7 7 8 9 8 9 9 8 7 7 8 8 8 8 8 6 10 10 10 10 11 10 11 11 10 11 11 12 12 11 12 12 13 12 12 12 14 15 12 12 12 11 13 13 13 11 9 10 11 9 9 9 9 8 8 7 7 7 6 7
9 8 7 7 7 8 7 6 5 5 6 6 8 5 5 6 7 7 7 8 9 8 9 9 8 8 9 9 10 8 9 8 10 10 9 8 8 8 8 6 8 8 7 10 11 11 11 11 12 12 11 11 11 12 13 13 14 14 13 11 12 14 13 13 13 13 13 12 13 13 11 10 10 11 10 10 10 10 9 9 9 9 8 6 6
10 9 8 8 7 8 6 6 6 6 7 6 5 5 7 7 6 5 7 8 9 10 9 9 9 9 10 9 8 8 9 10 11 10 10 10 9 7 7 9 9 8 8 9 9 10 11 12 12 12 11 10 11 12 12 13 14 15 15 14 14 15 15 14 14 14 13 12 13 13 13 12 10 10 10 10 10 11 9 10 8 5 7 7 5
7 4 5 6 5 4 4 5 6 6 6 7 7 6 5 5 6 5 7 8 7 8 9 9 9 10 10 9 9 9 9 10 10 10 11 11 10 9 8 9 9 8 9 9 9 10 10 12 13 13 13 12 11 10 11 12 14 13 13 14 14 15 15 15 15 14 14 14 15 14 13 14 14 14 12 11 10 10 9 8 9 7 7 8 5
5 6 7 5 4 5 7 7 6 6 5 5 6 6 6 7 5 6 7 6 5 5 7 8 9 10 10 10 10 10 11 11 11 10 11 10 9 9 8 10 9 9 9 8 9 9 10 11 12 14 14 13 13 11 10 11 12 12 14 14 14 14 14 15 15 15 16 16 16 16 16 15 15 15 12 12 11 13 11 10 10 8 7 6 6
7 6 4 6 8 6 5 6 6 7 7 6 6 6 6 6 7 5 5 5 5 4 6 7 8 9 9 10 10 10 12 13 13 11 11 10 9 9 9 8 9 9 8 8 9 8 9 11 11 12 13 15 15 14 12 11 11 11 11 12 13 13 14 14 14 14 15 15 16 16 16 16 16 16 15 13 13 14 12 12 12 9 7 7 8
8 7 6 3 4 6 8 7 7 6 6 6 6 6 6 5 6 5 5 5 4 4 4 5 6 6 7 8 9 10 10 10 11 11 10 9 9 10 10 10 9 9 8 8 7 8 8 9 10 9 10 11 12 13 14 13 11 10 10 11 11 11 11 11 12 14 14 14 14 14 16 17 17 16 16 16 15 13 12 12 12 12 10 9 8
4 4 5 6 7 7 7 9 7 8 7 5 5 6 6 6 7 5 4 4 3 3 4 4 4 5 5 7 7 7 8 9 9 8 9 9 9 9 10 9 8 9 9 9 9 9 8 6 7 6 6 6 7 9 11 11 11 11 10 12 12 13 12 11 11 11 12 13 14 14 15 17 17 16 16 15 16 15 11 11 9 11 11 11 10
5 7 7 7 7 8 8 8 8 6 6 7 6 6 5 5 5 4 4 5 4 3 3 3 3 4 5 5 4 5 5 6 7 7 8 8 8 8 8 8 9 9 8 9 9 9 8 8 7 7 7 6 7 8 8 11 13 14 12 11 11 12 13 12 12 11 11 12 12 12 13 14 16 18 20 19 18 17 15 13 11 12 12 11 10
9 9 7 6 7 7 8 7 7 7 7 6 6 6 6 6 6 5 4 4 3 4 3 3 4 4 4 4 4 4 5 5 6 7 7 7 7 8 8 8 9 9 8 8 8 8 9 9 9 8 8 7 9 9 12 15 13 11 10 11 11 11 13 14 13 13 12 12 12 12 12 17 19 19 19 19 19 18 18 16 15 14 14 12 13
8 7 8 9 8 7 7 7 9 8 8 8 7 7 5 5 5 4 5 4 3 4 3 3 4 3 3 3 4 5 4 6 7 6 6 7 7 7 7 8 8 8 8 8 8 9 9 9 9 9 10 9 10 10 16 17 18 17 12 9 9 10 10 12 13 14 15 14 12 11 10 14 16 16 17 20 20 21 20 18 20 21 19 18 15
8 8 9 9 10 9 9 10 10 9 8 7 7 6 5 7 6 6 6 4 4 4 4 4 4 3 3 4 4 4 5 6 5 7 7 7 7 7 8 8 8 8 8 7 8 10 10 9 8 9 10 11 11 13 16 17 18 17 14 10 9 8 8 10 12 13 12 13 14 14 12 13 13 15 15 16 18 21 20 19 19 20 20 22 23
9 11 11 11 12 11 11 11 9 8 8 9 8 6 8 7 6 7 4 4 5 4 4 3 3 3 3 4 4 4 5 5 6 6 6 7 7 8 8 8 9 8 8 9 10 9 9 9 9 10 10 11 10 13 15 17 18 19 18 13 8 10 10 9 10 12 12 13 12 12 12 13 12 19 15 14 13 14 16 18 18 18 18 18 17
13 13 13 12 11 9 9 11 11 10 9 7 7 9 8 6 6 4 6 5 5 4 4 4 3 3 3 3 4 5 5 6 5 5 5 6 8 9 8 8 7 7 9 9 9 10 9 10 10 10 10 9 10 12 18 19 18 18 17 14 7 10 10 10 9 9 11 12 13 14 14 13 12 15 14 14 14 13 12 11 12 12 12 15 17
16 13 11 12 12 11 10 8 8 9 6 4 5 5 4 4 5 5 5 5 4 5 4 4 4 4 3 3 4 4 5 5 5 5 6 7 7 7 8 7 7 9 9 9 9 9 9 9 10 10 9 9 10 14 18 19 19 19 18 14 6 6 7 9 9 8 8 10 12 13 12 13 15 16 15 17 16 15 14 12 11 12 11 11 11
14 12 14 14 12 13 13 13 9 6 6 6 7 6 6 6 5 6 5 5 5 5 5 4 4 4 4 4 4 4 4 4 4 5 6 7 6 7 8 6 6 5 5 6 7 8 9 10 9 9 9 9 8 15 17 18 19 19 20 11 8 8 8 8 9 10 10 8 9 11 11 11 12 12 16 22 17 14 14 13 14 12 11 9 9
13 14 16 14 13 12 13 8 6 8 7 8 6 7 6 5 5 5 5 5 5 5 5 5 5 4 4 4 5 5 5 5 5 6 7 7 6 6 5 5 6 6 6 6 7 8 8 9 10 10 10 9 8 14 18 19 19 19 17 9 9 8 8 9 9 9 10 10 11 11 11 11 12 12 17 22 22 19 14 14 13 13 11 10 8
13 12 11 9 9 8 6 7 8 8 9 6 7 7 7 6 6 5 5 5 5 7 5 5 5 5 4 4 5 5 5 5 5 6 6 6 6 5 6 6 7 7 8 7 6 5 6 8 10 10 10 10 8 13 19 19 20 21 17 12 10 9 9 8 7 7 7 9 11 16 13 12 12 12 19 23 24 19 16 15 14 14 14 12 9
13 13 12 10 9 10 9 7 7 9 8 6 7 8 7 7 6 6 6 7 8 7 7 7 6 5 4 4 5 5 6 6 6 6 6 7 7 7 4 5 5 5 6 5 6 6 7 7 8 9 11 11 9 12 20 20 22 22 17 10 10 9 10 9 9 9 7 8 9 12 16 14 13 13 22 23 25 20 15 16 16 15 15 14 13
10 8 11 11 7 5 5 8 9 11 8 9 8 8 8 7 7 6 7 9 10 9 7 6 5 5 5 5 5 6 6 7 7 7 6 7 6 5 6 6 5 5 5 5 6 8 9 8 7 7 8 10 9 10 15 22 22 24 21 12 9 10 11 11 9 9 9 8 9 9 12 16 17 20 23 24 23 19 14 13 13 14 15 15 12
9 10 6 6 8 11 13 14 12 8 9 9 8 8 8 7 6 7 10 12 8 6 6 6 6 6 6 6 5 5 7 6 6 6 6 6 6 6 6 6 6 5 5 5 7 7 8 7 7 8 8 9 10 11 14 22 23 24 24 19 11 12 10 10 10 10 9 10 10 10 9 14 19 21 24 24 23 18 13 13 14 15 12 11 13
4 8 9 9 9 8 6 4 3 8 9 9 9 10 9 7 7 10 14 7 5 7 7 6 7 7 7 7 6 6 6 6 6 6 6 6 5 6 7 7 6 6 7 7 7 7 7 7 6 7 8 9 9 14 12 20 23 25 24 25 13 12 12 11 10 10 9 9 10 9 8 14 19 19 21 22 22 19 17 11 10 8 16 21 14
6 5 5 9 8 7 9 10 7 7 8 8 9 10 7 7 10 15 7 5 7 7 7 7 7 7 7 7 7 7 7 5 6 6 7 7 6 6 6 7 7 7 7 8 8 7 7 7 5 6 7 8 8 10 16 16 21 24 26 25 22 13 19 11 12 12 13 10 7 7 8 14 17 19 19 21 20 19 16 10 12 15 17 19 13
7 11 11 9 9 8 9 6 6 6 7 8 10 9 8 9 15 8 4 5 6 7 7 8 8 8 7 7 7 7 7 6 7 6 7 7 7 7 7 7 7 7 7 7 6 6 8 8 7 6 6 7 7 8 12 17 17 23 25 26 23 19 21 12 10 9 9 10 10 9 9 16 17 18 17 18 17 17 11 14 16 17 19 16 11
6 6 7 8 10 10 8 5 5 6 6 8 8 10 9 13 11 5 7 7 7 7 8 8 8 7 7 6 6 7 7 7 7 8 7 7 7 7 8 7 7 7 8 8 7 7 8 8 7 7 7 7 7 7 7 12 18 19 23 26 27 22 19 20 12 8 9 9 9 14 17 19 18 18 16 17 16 16 15 16 17 19 18 10 10
0 2 7 8 5 4 4 6 5 6 7 7 8 9 12 15 6 7 6 7 7 8 8 9 8 7 7 7 7 7 8 8 8 7 8 7 7 7 7 7 7 7 7 8 8 8 8 8 7 7 7 7 7 7 7 8 11 16 17 22 23 23 21 20 13 9 12 14 18 19 21 20 20 18 14 11 10 11 16 17 17 17 11 10 10
9 6 5 4 4 4 6 6 7 6 8 8 9 10 12 6 6 6 7 7 8 9 9 8 8 7 7 7 8 7 7 7 8 7 7 7 7 7 8 8 8 8 8 8 8 8 8 8 8 7 6 6 7 7 7 8 9 11 12 14 15 15 19 18 12 9 12 12 14 15 12 14 10 17 16 14 12 12 12 11 10 11 10 10 10
5 3 4 3 5 7 8 8 9 7 8 9 9 10 11 7 5 7 8 8 9 9 9 9 9 8 7 8 8 9 9 7 7 8 8 8 8 8 9 9 9 9 9 9 9 9 10 9 8 7 6 6 7 7 8 9 9 10 10 10 11 11 12 11 11 10 9 10 10 11 12 11 10 11 11 8 8 9 11 11 10 9 8 8 9
7 6 6 8 7 8 9 8 10 6 8 8 9 10 8 8 7 7 8 9 9 9 9 8 8 8 8 7 8 7 8 8 7 8 8 8 9 8 9 8 8 8 9 9 8 8 9 9 9 9 9 8 7 9 8 5 6 8 9 9 10 10 9 9 10 14 11 9 9 10 10 10 10 12 11 11 11 11 11 11 12 11 9 9 10
5 3 6 7 6 7 7 9 9 5 7 8 9 8 6 7 8 8 9 10 9 8 8 9 8 8 8 8 7 7 7 8 8 8 8 7 9 12 11 9 8 9 12 13 12 10 9 8 8 8 8 9 9 7 8 12 13 13 14 14 11 12 13 10 14 20 13 10 10 10 10 11 12 12 13 13 13 13 12 12 11 11 10 10 11
6 5 5 7 8 7 6 6 7 4 6 7 7 6 6 7 9 9 10 10 9 9 8 8 8 9 9 9 8 8 8 8 8 8 7 8 7 8 13 16 14 11 12 14 15 15 16 17 12 9 9 13 11 11 15 16 17 17 16 16 16 16 16 18 20 15 11 11 11 11 11 10 11 12 12 13 12 12 13 12 12 12 11 11 12
Wind_Direction
273 276 274 260 256 256 255 248 245 220 189 186 197 231 237 178 149 214 247 258 226 249 276 134 116 92 156 225 296 282 216 167 167 168 171 168 169 170 171 171 170 169 170 167 167 165 163 160 158 157 157 158 158 161 158 153 149 145 141 140 136 131 129 132 131 125 114 84 76 79 76 60 56 57 54 47 46 47 47 41 10 52 54 55 36
290 287 277 275 268 264 259 240 219 209 226 194 210 224 242 186 185 199 235 238 235 258 251 290 115 131 159 214 195 331 279 182 168 172 168 167 168 172 173 172 170 171 170 169 166 166 163 162 162 163 162 163 160 153 150 147 146 145 143 134 141 138 142 151 151 131 116 141 131 102 74 71 59 52 56 50 51 45 43 41 31 45 61 57 40
291 271 276 273 274 279 263 247 230 217 210 201 211 224 248 212 204 197 197 246 254 265 273 263 137 131 134 210 86 327 309 230 170 163 159 163 170 172 172 174 172 173 171 168 166 166 164 163 166 164 165 157 151 153 155 155 155 153 154 147 143 137 137 163 164 169 131 128 126 114 152 125 43 61 62 64 57 55 46 54 43 49 57 51 43
287 283 280 286 280 273 252 249 236 192 211 213 198 219 239 243 203 198 188 238 258 241 255 262 182 159 132 148 165 125 91 287 154 152 156 159 170 173 174 174 176 173 173 168 168 168 166 166 164 167 168 164 158 158 162 160 159 158 156 151 145 144 156 172 187 161 148 140 150 176 145 126 137 211 132 72 67 73 70 68 60 61 52 67 70
276 289 285 279 291 268 232 241 220 210 222 225 213 205 221 219 215 198 175 235 247 227 255 276 84 254 116 110 128 83 26 359 21 118 145 158 156 171 175 172 175 180 174 171 168 167 166 166 169 167 164 164 159 158 164 168 168 165 160 156 163 160 163 164 185 172 179 172 132 120 113 208 207 128 122 51 74 75 80 93 91 81 70 75 87
251 268 273 277 278 283 272 251 226 232 239 238 190 201 196 226 230 188 187 219 238 225 192 132 131 187 129 135 111 78 42 0 37 22 122 161 170 153 149 163 159 160 176 167 163 161 165 166 161 156 161 161 166 165 161 159 163 166 171 168 166 167 158 162 164 188 193 208 263 58 153 167 150 162 142 175 47 8 83 94 118 121 107 101 90
279 261 269 278 272 265 263 237 221 217 243 164 172 187 200 222 219 198 189 203 252 220 187 141 127 201 241 27 164 129 106 356 357 97 32 31 65 141 148 150 154 146 137 151 161 165 164 160 157 161 161 159 156 159 163 168 170 174 171 170 169 164 163 162 169 173 193 244 236 62 67 95 134 142 182 84 148 252 169 134 158 171 132 120 121
264 279 278 258 263 243 237 228 211 213 212 168 195 189 195 202 220 219 184 192 257 262 236 151 164 200 271 82 31 133 147 146 150 122 107 41 68 107 123 128 134 144 150 150 156 153 151 148 156 157 160 163 156 164 169 171 170 170 174 174 165 170 176 171 172 169 178 193 163 119 87 130 157 152 158 169 160 165 185 28 159 156 151 147 150
259 267 271 267 258 244 234 245 228 205 184 199 210 201 186 195 219 220 206 168 216 288 232 204 150 134 125 109 92 69 344 143 144 122 102 134 105 21 111 130 122 136 149 146 145 147 146 156 159 158 151 159 169 154 164 174 174 170 174 174 175 181 188 184 168 175 182 179 157 109 114 133 154 56 144 39 138 130 110 181 164 159 120 180 158
261 247 256 270 261 257 244 263 298 219 204 209 193 164 170 170 188 216 234 191 180 232 289 245 175 146 135 108 115 55 102 30 115 149 152 148 147 151 143 117 120 103 94 131 135 140 146 154 161 162 165 162 169 174 168 169 174 178 180 181 180 181 188 185 183 178 184 175 174 150 140 141 133 112 158 124 47 81 158 187 181 171 179 186 159
264 259 260 260 262 260 255 229 239 272 170 171 171 180 168 166 176 200 237 224 192 206 233 252 249 172 164 139 135 137 130 127 71 103 134 165 166 165 166 166 162 157 154 158 142 137 145 148 152 159 158 160 169 170 172 173 176 177 181 183 182 183 188 188 189 188 182 177 172 172 166 168 171 173 170 184 155 137 97 132 151 175 158 140 191
261 273 276 281 300 282 253 249 240 220 134 153 168 169 180 174 167 176 240 244 209 190 214 258 259 252 214 162 150 156 149 152 158 160 170 170 162 177 173 181 180 172 171 172 178 177 173 175 174 171 172 171 176 178 176 177 174 174 180 184 185 190 191 189 187 183 189 184 182 183 179 177 175 169 177 177 172 167 150 150 151 134 100 98 127
254 258 265 279 261 256 259 264 291 241 170 164 171 176 187 181 174 167 203 230 233 191 205 221 229 240 203 212 174 161 162 166 166 163 164 173 168 163 160 180 178 197 185 190 193 182 176 178 177 176 175 176 176 173 177 176 175 179 183 185 186 186 191 193 190 190 187 187 185 187 179 184 186 175 162 164 127 121 127 126 126 127 129 135 148
235 238 249 257 255 257 250 255 251 241 198 171 168 172 186 196 192 182 192 199 209 205 206 212 236 222 210 201 195 172 176 173 173 168 169 172 169 174 181 181 188 194 183 188 189 186 184 188 186 184 183 180 176 177 173 174 177 179 183 185 188 190 191 195 197 191 192 195 185 180 183 189 186 159 160 148 146 134 135 137 140 98 98 128 117
238 240 239 243 251 248 254 249 245 234 207 183 176 179 173 195 202 205 181 193 196 207 198 209 211 228 229 212 191 195 184 187 185 176 171 172 172 180 185 185 195 200 191 187 178 187 186 184 194 197 189 185 187 183 178 174 176 177 180 186 186 186 190 193 199 192 191 192 190 189 191 191 176 168 163 167 160 157 146 147 139 131 102 122 167
239 240 252 254 250 260 264 263 252 240 216 199 191 181 182 191 199 211 198 176 187 197 216 209 207 207 217 214 216 196 190 187 182 181 189 186 180 181 185 191 198 186 198 164 195 189 188 188 189 194 193 192 190 187 182 181 180 178 180 180 185 184 185 192 198 195 196 193 192 191 189 190 177 175 173 165 168 156 148 154 152 149 144 155 182
236 236 237 249 262 261 252 256 261 252 232 213 206 192 190 183 184 204 216 183 186 193 198 206 205 201 210 219 221 208 197 194 194 195 192 191 188 191 190 195 182 173 188 182 168 186 197 196 193 196 195 197 195 192 188 185 181 183 182 182 185 183 185 189 192 195 195 193 193 188 190 185 179 173 167 164 156 150 158 161 165 162 162 135 159
227 237 245 251 256 262 261 252 245 240 236 231 223 200 194 185 183 188 194 210 209 190 189 192 195 199 201 209 214 212 208 207 205 201 190 186 193 190 182 178 196 185 185 182 174 185 188 191 194 197 198 199 201 197 191 189 186 189 188 186 186 179 186 189 191 191 192 190 190 187 185 176 173 172 172 166 160 160 160 169 173 171 158 157 160
250 243 244 246 244 245 246 246 246 242 241 239 243 196 187 189 194 188 196 202 211 203 191 190 190 194 199 199 201 210 216 216 214 204 195 197 196 194 193 197 184 180 176 176 188 185 185 196 200 202 198 200 202 204 200 195 193 192 192 193 188 181 182 185 187 185 187 183 184 183 179 173 165 168 161 161 159 159 164 166 167 160 182 149 156
230 234 234 235 237 237 235 235 242 239 233 233 235 208 198 200 185 200 204 201 198 209 211 203 199 193 197 199 206 205 210 220 216 205 202 205 208 203 199 193 196 183 188 187 191 194 192 194 197 204 200 200 203 204 200 200 199 202 194 191 189 185 186 183 177 178 169 176 172 174 172 167 162 153 154 158 160 162 160 163 161 157 157 154 146
225 226 231 232 235 240 240 238 243 256 266 266 244 226 226 191 197 192 190 192 195 204 200 215 203 203 189 193 198 197 205 210 217 216 213 212 212 212 212 209 192 199 193 189 191 194 194 198 199 202 208 203 200 202 201 197 197 201 200 194 183 185 184 179 169 169 166 165 169 164 161 157 154 154 157 154 152 153 157 158 154 151 147 145 141
223 225 225 235 240 247 254 261 260 259 261 252 244 232 241 225 211 196 195 193 191 193 198 204 206 208 201 199 197 197 198 199 206 213 217 215 213 212 212 208 212 213 198 204 200 193 193 195 198 206 208 208 207 202 199 196 196 198 198 191 184 184 184 177 173 173 169 168 165 161 158 156 162 156 155 158 154 155 162 159 165 158 152 165 156
221 220 224 229 234 233 242 251 248 241 247 254 261 239 233 233 223 211 198 206 191 194 191 193 196 200 207 209 200 194 191 197 199 204 210 214 216 210 201 205 210 209 205 212 208 201 195 193 198 204 205 209 210 205 197 200 201 197 196 195 185 183 183 178 180 177 172 169 168 169 165 158 155 154 162 160 158 163 163 162 157 147 151 162 160
248 255 253 245 244 271 285 261 251 246 242 240 241 243 246 244 233 215 212 222 201 190 183 182 190 196 199 197 200 202 197 199 202 204 205 206 205 207 198 206 209 206 203 208 209 207 204 199 197 198 200 201 210 211 202 203 202 199 198 197 189 185 184 182 181 176 173 174 175 170 171 165 163 163 165 165 169 162 160 155 155 160 162 167 154
258 246 240 249 264 258 243 241 243 246 245 245 242 242 240 242 235 225 229 225 216 190 179 184 184 190 189 190 194 192 198 202 207 209 211 208 204 203 196 201 203 207 208 205 209 207 206 207 206 202 196 195 200 203 212 210 206 203 201 198 194 188 186 185 183 179 177 176 175 178 171 168 168 165 167 168 169 169 163 158 165 164 164 155 138
240 244 251 237 230 241 258 255 248 245 244 250 251 246 241 243 241 230 234 234 223 191 190 183 185 186 189 191 192 190 196 199 201 205 208 207 205 205 203 204 200 207 206 206 207 209 209 211 214 211 204 202 197 192 198 209 209 206 205 200 195 189 188 186 186 182 180 180 179 177 171 171 170 170 173 170 171 172 166 164 161 160 155 145 138
219 213 218 253 283 252 242 245 239 243 240 240 247 254 252 246 250 239 225 214 206 179 184 185 190 193 192 196 194 196 196 199 198 199 198 197 198 199 196 201 199 200 198 202 206 211 215 214 219 217 216 211 200 193 196 196 199 206 205 206 197 190 189 189 189 185 182 182 182 178 174 174 175 174 168 171 169 170 172 170 163 155 147 145 140
245 260 250 242 245 256 253 246 244 244 243 248 247 246 246 243 248 241 215 202 192 172 184 193 196 207 209 211 204 198 199 200 198 197 196 196 194 192 194 192 187 195 195 198 203 210 215 214 221 217 216 216 216 210 200 196 193 201 204 202 197 190 184 186 188 188 186 183 182 181 179 179 178 175 171 170 167 167 167 162 160 145 146 147 146
241 241 238 237 245 247 247 243 241 245 250 250 252 253 249 254 250 240 201 208 190 169 191 204 217 230 233 228 223 212 202 199 196 195 197 197 194 192 186 180 183 194 197 196 196 200 203 209 213 206 201 189 200 209 212 203 196 193 193 203 205 191 182 181 183 184 185 183 183 184 184 183 181 175 172 170 173 167 162 163 164 153 152 152 148
229 237 244 248 246 244 245 244 247 238 242 247 246 241 232 228 233 227 217 220 157 182 184 202 216 230 237 236 232 224 211 205 198 199 201 194 191 187 181 181 185 190 192 190 192 197 201 204 205 207 204 195 199 202 206 211 204 202 198 197 194 198 187 180 180 182 184 184 182 182 186 185 176 168 167 169 169 171 172 167 163 160 158 158 159
238 247 255 259 259 247 246 248 246 240 233 233 231 228 222 225 225 214 217 214 174 193 201 215 239 236 236 236 233 229 212 211 207 203 198 191 190 181 181 182 183 183 187 190 190 195 201 203 205 204 205 205 207 209 204 204 206 202 192 188 188 195 201 187 183 183 182 179 180 179 177 178 173 165 165 168 170 172 175 173 168 168 166 162 159
243 249 256 261 257 247 237 235 237 235 231 228 227 220 204 219 209 208 212 191 181 194 213 227 233 244 242 235 228 225 217 219 204 206 196 191 182 183 185 183 179 182 185 179 193 200 199 200 204 205 207 209 213 206 202 203 201 198 195 193 185 186 196 202 190 188 185 178 177 176 175 174 178 172 165 169 174 177 177 174 174 175 174 173 169
245 247 249 248 245 237 229 230 232 231 225 225 210 195 210 209 197 209 173 177 190 191 203 220 237 232 241 230 223 217 220 217 211 203 194 183 185 186 189 187 190 186 174 183 196 196 202 200 200 204 209 210 215 208 200 203 201 198 197 192 192 184 185 203 200 188 183 179 173 175 176 174 178 165 161 168 170 175 177 173 174 177 180 181 184
240 237 237 240 240 237 229 223 220 222 218 216 197 199 208 194 187 168 173 187 183 199 190 214 221 230 231 222 219 213 218 218 208 202 190 190 189 194 193 192 189 181 186 190 191 194 197 198 201 206 209 208 208 200 200 200 197 197 196 191 198 189 185 186 199 194 185 181 175 178 175 172 173 169 166 165 166 167 167 167 171 178 181 184 180
232 229 230 231 229 226 227 231 234 226 212 187 213 206 164 157 167 171 185 178 195 194 199 204 213 223 215 213 209 212 217 214 205 196 193 197 197 201 196 193 189 187 188 188 188 194 198 201 205 203 202 204 207 197 197 193 193 192 190 185 182 195 193 186 182 189 195 189 179 179 180 175 173 173 170 166 164 165 164 166 169 175 180 179 176
220 213 221 222 219 216 212 217 218 185 184 189 201 180 166 182 171 175 178 187 189 201 213 207 218 212 211 204 197 208 210 205 200 194 199 203 202 202 201 191 191 199 203 191 187 187 192 199 205 201 198 204 203 194 192 191 191 189 181 171 175 189 196 194 188 182 177 185 186 177 174 174 179 181 169 163 159 156 159 163 169 172 171 172 180
218 208 219 216 211 208 211 201 179 188 176 199 189 170 167 158 171 183 175 186 190 208 212 211 220 212 206 201 198 202 204 202 197 199 202 203 201 206 205 179 187 187 189 199 194 191 193 198 198 197 196 197 193 192 190 190 190 181 172 172 173 183 193 195 194 186 179 178 181 180 176 173 173 180 172 162 155 154 159 164 165 168 168 166 169
215 215 218 213 207 207 203 184 189 188 191 180 172 166 160 167 180 177 179 192 201 215 209 208 214 213 207 200 202 201 207 203 198 204 205 207 204 204 200 181 193 187 194 194 188 190 197 201 197 196 193 188 188 189 188 189 186 182 177 176 173 177 189 190 188 184 180 183 185 178 173 172 175 177 174 165 160 157 162 165 164 162 166 172 168
212 202 204 206 201 195 192 180 180 187 196 175 167 159 161 182 182 183 186 199 212 213 205 206 207 201 203 201 200 203 207 205 205 209 205 207 204 199 183 175 190 183 191 182 188 195 200 205 203 195 188 186 182 187 187 185 184 181 176 174 169 173 181 187 181 185 188 183 181 182 179 177 177 175 176 169 164 164 163 167 167 164 169 177 175
219 204 202 200 175 132 147 181 183 203 171 170 164 164 179 184 191 177 194 212 215 209 204 200 198 198 200 207 209 210 212 210 211 208 205 206 191 176 175 175 184 180 181 184 197 202 204 204 197 189 190 187 178 183 188 185 181 180 175 167 166 173 186 184 180 180 179 189 186 182 183 180 176 175 177 173 170 167 164 164 163 171 173 181 162
203 202 168 149 168 174 180 188 198 175 165 172 162 167 189 193 178 187 215 220 208 191 190 195 194 197 200 207 211 211 212 209 204 205 196 192 183 181 173 181 182 181 176 190 200 208 211 209 193 194 186 188 182 179 189 186 184 183 179 173 175 183 180 174 178 180 185 185 188 188 183 182 178 177 177 174 169 165 156 165 176 184 184 143 137
192 167 158 166 172 190 183 192 184 174 173 168 169 180 195 179 185 210 225 205 175 185 185 187 194 198 201 203 211 216 211 209 198 187 189 193 188 176 178 179 178 177 183 192 197 208 215 212 195 194 196 191 185 182 182 191 188 187 185 182 175 182 174 171 176 185 184 191 190 182 181 182 177 177 177 172 166 163 159 165 177 139 126 143 153
140 142 173 154 163 180 194 202 188 180 175 174 171 187 189 187 202 224 210 168 183 178 183 188 193 198 199 201 205 212 213 208 199 190 190 193 180 179 182 183 178 179 186 192 197 203 214 219 200 200 201 195 188 188 184 189 191 189 188 187 182 171 182 180 182 186 191 186 172 169 164 173 176 176 177 170 164 155 157 165 155 141 142 138 131
175 163 167 163 175 188 205 201 186 181 175 177 177 188 191 196 223 216 156 174 173 184 181 189 195 198 197 198 200 207 212 205 197 188 191 192 188 186 182 186 183 181 182 188 198 200 213 220 209 204 205 200 196 190 192 190 191 190 190 188 182 173 181 182 186 187 178 175 170 171 166 167 171 174 172 167 160 158 162 159 158 145 143 141 142
161 170 167 166 179 192 203 202 194 186 185 185 189 186 196 214 226 160 187 173 179 177 187 192 196 197 198 196 195 202 209 209 199 186 192 194 193 189 191 188 185 188 183 186 190 195 212 218 213 211 208 201 195 195 191 197 194 194 192 190 186 175 178 184 187 182 171 172 159 156 157 166 166 168 170 166 164 164 155 163 160 152 151 154 156
73 124 165 189 193 192 188 214 209 196 193 193 197 194 202 222 196 177 175 174 171 181 191 198 193 195 197 189 192 202 208 209 205 198 194 192 192 194 198 189 190 191 190 188 184 193 212 216 222 217 213 204 194 195 195 191 193 194 194 191 186 178 173 181 179 167 161 151 154 157 161 165 168 170 170 174 175 176 169 170 166 156 162 164 168
209 190 147 157 176 196 223 225 229 204 197 201 204 211 220 212 172 171 167 171 180 186 194 192 195 192 193 190 194 197 205 209 207 207 203 196 193 195 201 200 194 195 196 193 186 186 204 216 218 219 213 204 200 200 198 190 190 191 194 190 184 180 173 171 171 159 156 155 155 157 168 169 167 172 176 175 171 169 168 170 173 173 176 175 173
228 144 170 159 177 205 220 220 232 216 198 204 208 214 218 209 174 167 169 173 186 190 193 195 193 190 191 192 196 197 200 207 209 207 205 205 203 200 210 211 204 202 198 199 191 187 194 205 214 210 205 207 210 205 201 198 196 193 192 190 187 179 177 177 172 159 153 149 149 154 158 168 170 172 175 169 168 171 180 183 186 182 176 172 176
189 196 177 191 205 211 218 212 230 210 195 203 212 216 212 199 187 174 169 180 193 196 197 197 192 188 196 192 196 193 200 204 208 211 214 206 202 206 210 216 214 204 203 201 195 198 195 204 209 203 198 209 211 214 208 195 205 203 198 189 188 187 174 174 168 149 141 140 146 157 165 169 174 174 179 180 181 180 188 188 186 184 174 173 173
226 171 185 209 222 215 212 216 231 197 190 204 213 216 203 193 183 183 179 188 192 191 198 202 193 193 194 191 194 196 197 204 206 209 211 221 217 206 201 209 219 213 216 211 197 199 191 194 212 220 208 208 209 208 182 193 202 203 205 201 194 184 181 166 159 152 148 151 164 167 174 175 174 178 182 187 187 185 183 185 191 188 179 177 182
222 200 209 213 224 219 222 229 235 196 204 207 213 204 193 192 189 188 186 194 185 190 200 203 194 203 194 191 192 196 198 200 206 207 207 211 215 225 220 212 209 207 210 220 218 211 199 198 197 207 207 209 210 201 195 196 198 199 201 199 191 185 173 169 157 149 162 171 171 176 179 182 182 181 187 190 189 188 187 185 188 188 187 184 185